Weather History for CYBG - July, 2013

Change the Weather History Date:

Monday, July 15, 2013

  Actual Average Record
Temperature  
Mean Temperature 74 °F -  
Max Temperature 86 °F 74 °F 87 °F (1998)
Min Temperature 62 °F 52 °F 50 °F (2002)
Cooling Degree Days 9    
Growing Degree Days 24 (Base 50)    
Moisture  
Dew Point 61 °F    
Average Humidity 56    
Maximum Humidity 78    
Minimum Humidity 35    
Precipitation  
Precipitation 0.00 in 0.14 in - ()
Sea Level Pressure  
Sea Level Pressure 30.12 in    
Wind  
Wind Speed 8 mph ()    
Max Wind Speed 20 mph    
Max Gust Speed 20 mph    
Visibility 15.0 miles    
Events      
Averages and records for this station are not official NWS values.
T = Trace of Precipitation, MM = Missing Value Source: Averaged Metar Reports

Daily Weather History Graph

Daily Weather History Graph

Search for Another Location

Airport or City:

Trip Planner

Search our weather history database for the weather conditions in past years. The results will help you decide how hot, cold, wet, or windy it might be!

Date:

Astronomy

Jul. 15, 2013 Rise Set
Actual Time 4:58 AM EDT 8:40 PM EDT
Civil Twilight 4:19 AM EDT 9:19 PM EDT
Nautical Twilight 3:25 AM EDT 10:13 PM EDT
Astronomical Twilight 2:08 AM EDT 11:28 PM EDT
Moon 12:55 PM EDT (7/15) 11:43 PM EDT (7/15)
Length of Visible Light 17h 00m
Length of Day
15h 41m
Waxing Crescent, 45% of the Moon is Illuminated
Jul 15
Waxing Crescent
Jul 15
First Quarter
Jul 22
Full
Jul 29
Last Quarter
Aug 6
New

Hourly Weather History & Observations

Time (EDT) Temp. Heat Index Dew Point Humidity Pressure Visibility Wind Dir Wind Speed Gust Speed Precip Events Conditions
12:00 AM 75.2 °F - 55.4 °F 50% 30.12 in 15.0 mi SW 6.9 mph - N/A   Partly Cloudy
1:00 AM 77.0 °F - 55.4 °F 47% 30.11 in 15.0 mi WSW 8.1 mph - N/A   Clear
2:00 AM 71 °F - 57 °F 51% 30.10 in 15 mi ENE 6.7 mph - -  
2:00 AM 71.6 °F - 57.2 °F 60% 30.10 in 15.0 mi ENE 2.3 mph - N/A   Clear
3:00 AM 71.6 °F - 57.2 °F 60% 30.10 in 15.0 mi ESE 3.5 mph - N/A   Clear
4:00 AM 66.2 °F - 57.2 °F 73% 30.10 in 15.0 mi South 3.5 mph - N/A   Partly Cloudy
5:00 AM 64.4 °F - 57.2 °F 77% 30.11 in 25.0 mi Calm Calm - N/A   Partly Cloudy
6:00 AM 64.4 °F - 57.2 °F 77% 30.11 in 25.0 mi SSW 3.5 mph - N/A   Partly Cloudy
7:00 AM 71.6 °F - 59.0 °F 64% 30.12 in 25.0 mi West 2.3 mph - N/A   Partly Cloudy
8:00 AM 76 °F - 58 °F 43% 30.12 in 25 mi West 5.8 mph - -   Scattered Clouds
8:00 AM 77.0 °F - 57.2 °F 50% 30.12 in 25.0 mi West 6.9 mph - N/A   Partly Cloudy
9:00 AM 78.8 °F - 59.0 °F 51% 30.13 in 25.0 mi WNW 13.8 mph 19.6 mph N/A   Partly Cloudy
10:00 AM 80.6 °F 81.1 °F 59.0 °F 48% 30.12 in 25.0 mi WNW 10.4 mph - N/A   Partly Cloudy
11:00 AM 84.2 °F 85.0 °F 62.6 °F 48% 30.12 in 25.0 mi WNW 17.3 mph - N/A   Partly Cloudy
12:00 PM 84.2 °F 85.0 °F 62.6 °F 48% 30.12 in 25.0 mi WNW 17.3 mph - N/A   Scattered Clouds
1:00 PM 84.2 °F 85.0 °F 62.6 °F 48% 30.11 in 25.0 mi NW 18.4 mph - N/A   Scattered Clouds
2:00 PM 86 °F - 62 °F 35% 30.12 in 25 mi WNW 15.0 mph - -   Scattered Clouds
2:00 PM 86.0 °F 86.6 °F 62.6 °F 45% 30.12 in 25.0 mi WNW 19.6 mph - N/A   Partly Cloudy
3:00 PM 86.0 °F 87.3 °F 64.4 °F 48% 30.12 in 25.0 mi NW 13.8 mph - N/A   Partly Cloudy
4:00 PM 84.2 °F 85.0 °F 62.6 °F 48% 30.12 in 25.0 mi NW 13.8 mph 19.6 mph N/A   Partly Cloudy
5:00 PM 84.2 °F 85.0 °F 62.6 °F 48% 30.12 in 25.0 mi NW 11.5 mph - N/A   Mostly Cloudy
6:00 PM 84.2 °F 85.6 °F 64.4 °F 51% 30.12 in 25.0 mi WNW 13.8 mph - N/A   Mostly Cloudy
7:00 PM 82.4 °F 83.9 °F 64.4 °F 54% 30.12 in 25.0 mi West 11.5 mph - N/A   Mostly Cloudy
8:00 PM 79 °F - 65 °F 54% 30.13 in 25 mi West 10.4 mph - -   Mostly Cloudy
8:00 PM 78.8 °F - 64.4 °F 61% 30.13 in 25.0 mi West 10.4 mph - N/A   Mostly Cloudy
9:00 PM 75.2 °F - 66.2 °F 73% 30.14 in 25.0 mi West 8.1 mph - N/A   Mostly Cloudy
10:00 PM 73.4 °F - 64.4 °F 73% 30.16 in 25.0 mi West 6.9 mph - N/A   Mostly Cloudy
11:00 PM 73.4 °F - 66.2 °F 78% 30.15 in 15.0 mi West 8.1 mph - N/A   Scattered Clouds